Location: Wien
(48.2082°N, 16.3738°E)
Time: 12:34:18
(UTC+02:00)

Tiros 1 despin weight - Pass Details

Date: 20 September 2024
Orbit: 573 x 615 km, 48.2° (Epoch: 06 October)

Event Time Altitude Azimuth Distance (km) Brightness Sun altitude
Rises 01:30:29 0° 205° (SSW) 2,836 - -39.9°
Reaches altitude 10° 01:33:14 10° 188° (S) 1,946 - -39.8°
Maximum altitude 01:36:30 20° 141° (SE) 1,414 - -39.7°
Drops below altitude 10° 01:39:48 10° 94° (E) 1,970 - -39.5°
Sets 01:42:36 0° 78° (ENE) 2,884 - -39.4°
